Friday Harbor, WA

11:39 AM PST on December 11, 2017 (GMT -0800)
Friday Harbor

Weather History for KFHR - December, 2012

Change the Weather History Date:

Wednesday, December 19, 2012

  Actual Average Record
Temperature  
Mean Temperature 40 °F -  
Max Temperature 42 °F 43 °F 51 °F (2003)
Min Temperature 37 °F 34 °F 12 °F (2008)
Degree Days  
Heating Degree Days 26    
Moisture  
Dew Point 36 °F    
Average Humidity 83    
Maximum Humidity 89    
Minimum Humidity 79    
Precipitation  
Precipitation 0.01 in - - ()
Sea Level Pressure  
Sea Level Pressure 29.60 in    
Wind  
Wind Speed 26 mph (SE)    
Max Wind Speed 34 mph    
Max Gust Speed 52 mph    
Visibility 10 miles    
Events Rain    
Averages and records for this station are not official NWS values.
T = Trace of Precipitation, MM = Missing Value Source: NWS Daily Summary

Daily Weather History Graph

Daily Weather History Graph

Search for Another Location

Airport or City:

Trip Planner

Search our weather history database for the weather conditions in past years. The results will help you decide how hot, cold, wet, or windy it might be!

Date:

Astronomy

Dec. 19, 2012 Rise Set
Actual Time 8:00 AM PST 4:18 PM PST
Civil Twilight 7:23 AM PST 4:55 PM PST
Nautical Twilight 6:43 AM PST 5:35 PM PST
Astronomical Twilight 6:05 AM PST 6:13 PM PST
Moon 11:39 AM PST (12/19) No Moon Set
Length of Visible Light 9h 31m
Length of Day
8h 17m
Waxing Crescent, 46% of the Moon is Illuminated
Dec 19
Waxing Crescent
Dec 19
First Quarter
Dec 28
Full
Jan 4
Last Quarter
Jan 11
New

Hourly Weather History & Observations

Time (PST) Temp. Windchill Dew Point Humidity Pressure Visibility Wind Dir Wind Speed Gust Speed Precip Events Conditions
12:53 AM 39.0 °F 28.5 °F 34.0 °F 82% 29.86 in 10.0 mi SE 23.0 mph 33.4 mph N/A   Overcast
1:53 AM 39.9 °F 30.0 °F 34.0 °F 79% 29.81 in 10.0 mi SE 21.9 mph 35.7 mph N/A   Overcast
2:53 AM 39.0 °F 28.3 °F 33.1 °F 79% 29.78 in 10.0 mi SE 24.2 mph 40.3 mph N/A   Overcast
3:31 AM 39.2 °F 27.6 °F 33.8 °F 81% 29.74 in 10.0 mi SE 28.8 mph 40.3 mph N/A   Overcast
3:53 AM 39.0 °F 27.4 °F 33.1 °F 79% 29.73 in 10.0 mi ESE 28.8 mph 42.6 mph N/A   Overcast
4:05 AM 39.2 °F 27.2 °F 33.8 °F 81% 29.73 in 10.0 mi ESE 31.1 mph 42.6 mph N/A   Overcast
4:53 AM 39.0 °F 26.6 °F 34.0 °F 82% 29.70 in 10.0 mi ESE 33.4 mph 44.9 mph N/A   Overcast
5:16 AM 37.4 °F 25.2 °F 33.8 °F 87% 29.70 in 10.0 mi SE 28.8 mph 39.1 mph N/A   Overcast
5:53 AM 37.9 °F 26.3 °F 33.1 °F 83% 29.69 in 10.0 mi SE 26.5 mph 41.4 mph N/A   Overcast
6:15 AM 39.2 °F 27.8 °F 33.8 °F 81% 29.68 in 10.0 mi SE 27.6 mph 42.6 mph N/A   Overcast
6:53 AM 39.0 °F 28.0 °F 33.1 °F 79% 29.66 in 10.0 mi SE 25.3 mph 41.4 mph N/A   Overcast
7:53 AM 39.0 °F 27.2 °F 34.0 °F 82% 29.64 in 10.0 mi SE 29.9 mph 40.3 mph N/A   Overcast
8:53 AM 39.9 °F 28.4 °F 35.1 °F 83% 29.62 in 10.0 mi SE 29.9 mph 46.0 mph N/A   Overcast
9:32 AM 39.2 °F 26.6 °F 35.6 °F 87% 29.60 in 8.0 mi SE 34.5 mph 51.8 mph 0.00 in Rain Light Rain
9:53 AM 39.0 °F 27.6 °F 36.0 °F 89% 29.60 in 10.0 mi SE 27.6 mph 43.7 mph 0.00 in   Overcast
10:53 AM 39.0 °F 27.8 °F 35.1 °F 86% 29.59 in 10.0 mi ESE 26.5 mph 36.8 mph 0.00 in   Overcast
11:53 AM 39.9 °F 29.2 °F 36.0 °F 86% 29.57 in 10.0 mi SE 25.3 mph 36.8 mph N/A   Overcast
12:49 PM 41.0 °F 30.5 °F 35.6 °F 81% 29.54 in 10.0 mi SE 26.5 mph 39.1 mph N/A   Overcast
12:53 PM 41.0 °F 31.1 °F 36.0 °F 82% 29.54 in 10.0 mi SE 23.0 mph 39.1 mph N/A   Overcast
1:13 PM 41.0 °F 30.2 °F 35.6 °F 81% 29.54 in 10.0 mi SE 27.6 mph 41.4 mph 0.00 in Rain Light Rain
1:20 PM 39.2 °F 28.0 °F 35.6 °F 87% 29.53 in 10.0 mi SE 26.5 mph 38.0 mph 0.00 in Rain Light Rain
1:50 PM 41.0 °F 30.7 °F 37.4 °F 87% 29.53 in 10.0 mi SE 25.3 mph 43.7 mph 0.01 in Rain Light Rain
1:53 PM 41.0 °F 30.2 °F 37.0 °F 86% 29.53 in 10.0 mi SE 27.6 mph 43.7 mph 0.01 in Rain Light Rain
2:53 PM 42.1 °F 31.1 °F 37.0 °F 82% 29.54 in 10.0 mi SE 31.1 mph 44.9 mph 0.00 in   Overcast
3:44 PM 41.0 °F 30.5 °F 37.4 °F 87% 29.52 in 10.0 mi SE 26.5 mph 43.7 mph N/A   Mostly Cloudy
3:53 PM 41.0 °F 30.7 °F 37.0 °F 86% 29.52 in 10.0 mi SE 25.3 mph 36.8 mph N/A   Mostly Cloudy
4:19 PM 41.0 °F 30.2 °F 35.6 °F 81% 29.51 in 10.0 mi SE 27.6 mph 40.3 mph N/A   Mostly Cloudy
4:49 PM 39.2 °F 27.6 °F 35.6 °F 87% 29.51 in 10.0 mi SE 28.8 mph 40.3 mph N/A   Overcast
4:53 PM 39.9 °F 29.2 °F 36.0 °F 86% 29.52 in 10.0 mi SE 25.3 mph 40.3 mph N/A   Overcast
5:53 PM 41.0 °F 30.2 °F 36.0 °F 82% 29.55 in 10.0 mi SE 27.6 mph 36.8 mph N/A   Overcast
6:53 PM 41.0 °F 30.5 °F 36.0 °F 82% 29.55 in 10.0 mi SE 26.5 mph 41.4 mph N/A   Overcast
7:46 PM 41.0 °F 30.7 °F 35.6 °F 81% 29.56 in 10.0 mi SE 25.3 mph 36.8 mph N/A   Mostly Cloudy
7:53 PM 41.0 °F 31.6 °F 37.0 °F 86% 29.57 in 10.0 mi SE 20.7 mph 36.8 mph N/A   Mostly Cloudy
8:05 PM 41.0 °F 31.4 °F 35.6 °F 81% 29.57 in 10.0 mi SE 21.9 mph 38.0 mph N/A   Overcast
8:25 PM 41.0 °F 31.6 °F 37.4 °F 87% 29.58 in 10.0 mi SE 20.7 mph 33.4 mph N/A   Overcast
8:53 PM 42.1 °F 33.9 °F 37.0 °F 82% 29.57 in 10.0 mi SSE 17.3 mph 31.1 mph N/A   Mostly Cloudy
9:53 PM 42.1 °F 33.3 °F 37.9 °F 85% 29.56 in 10.0 mi SE 19.6 mph 28.8 mph N/A   Overcast
10:14 PM 42.8 °F 34.0 °F 37.4 °F 81% 29.57 in 10.0 mi SE 20.7 mph 33.4 mph N/A   Overcast
10:30 PM 42.8 °F 33.8 °F 37.4 °F 81% 29.57 in 10.0 mi SE 21.9 mph 32.2 mph N/A   Overcast
10:53 PM 42.1 °F 33.3 °F 37.0 °F 82% 29.56 in 10.0 mi SE 19.6 mph 31.1 mph N/A   Overcast
11:53 PM 42.1 °F 34.2 °F 37.0 °F 82% 29.55 in 10.0 mi SE 16.1 mph 27.6 mph 0.00 in Rain Light Rain